Time,TemperatureF,DewpointF,PressureIn,WindDirection,WindDirectionDegrees,WindSpeedMPH,WindSpeedGustMPH,Humidity,HourlyPrecipIn,Conditions,Clouds,dailyrainin,SoftwareType,DateUTC
2013-05-15 00:00:00,59.0,58.4,29.89,East,90,0.0,-999.0,98,-99.99,,,0.00,Acu-Link.com,2013-05-15 05:00:00,
2013-05-15 00:15:00,58.8,58.2,29.89,SSE,157,0.0,-999.0,98,-99.99,,,0.00,Acu-Link.com,2013-05-15 05:15:00,
2013-05-15 00:30:00,58.8,58.2,29.90,NNE,22,0.0,-999.0,98,-99.99,,,0.00,Acu-Link.com,2013-05-15 05:30:00,
2013-05-15 00:45:00,58.3,57.7,29.90,South,180,0.0,-999.0,98,-99.99,,,0.00,Acu-Link.com,2013-05-15 05:45:00,
2013-05-15 01:00:00,58.1,57.5,29.90,ENE,67,0.0,-999.0,98,-99.99,,,0.00,Acu-Link.com,2013-05-15 06:00:00,
2013-05-15 01:15:00,57.9,57.3,29.90,South,180,0.0,-999.0,98,-99.99,,,0.00,Acu-Link.com,2013-05-15 06:15:00,
2013-05-15 01:30:00,57.7,57.1,29.90,ENE,67,0.0,-999.0,98,-99.99,,,0.00,Acu-Link.com,2013-05-15 06:30:00,
2013-05-15 01:45:00,57.2,56.6,29.90,NE,45,0.0,-999.0,98,-99.99,,,0.00,Acu-Link.com,2013-05-15 06:45:00,
2013-05-15 02:00:00,56.8,56.2,29.90,SE,135,0.0,-999.0,98,-99.99,,,0.00,Acu-Link.com,2013-05-15 07:00:00,
2013-05-15 02:16:00,56.5,55.9,29.91,NNE,22,0.0,-999.0,98,-99.99,,,0.00,Acu-Link.com,2013-05-15 07:16:00,
2013-05-15 02:31:00,56.1,55.5,29.91,South,180,0.0,-999.0,98,-99.99,,,0.00,Acu-Link.com,2013-05-15 07:31:00,
2013-05-15 02:46:00,55.9,55.3,29.90,ESE,112,0.0,-999.0,98,-99.99,,,0.00,Acu-Link.com,2013-05-15 07:46:00,
2013-05-15 03:01:00,55.8,55.2,29.90,NNE,22,0.0,-999.0,98,-99.99,,,0.00,Acu-Link.com,2013-05-15 08:01:00,
2013-05-15 03:16:00,55.8,55.2,29.91,WSW,247,0.0,-999.0,98,-99.99,,,0.00,Acu-Link.com,2013-05-15 08:16:00,
2013-05-15 03:31:00,55.9,55.3,29.91,SSE,157,0.0,-999.0,98,-99.99,,,0.00,Acu-Link.com,2013-05-15 08:31:00,
2013-05-15 03:47:00,55.8,55.2,29.91,NW,315,0.0,-999.0,98,-99.99,,,0.00,Acu-Link.com,2013-05-15 08:47:00,
2013-05-15 04:02:00,55.4,54.8,29.91,West,270,0.0,-999.0,98,-99.99,,,0.00,Acu-Link.com,2013-05-15 09:02:00,
2013-05-15 04:17:00,55.0,54.4,29.91,ENE,67,0.0,-999.0,98,-99.99,,,0.00,Acu-Link.com,2013-05-15 09:17:00,
2013-05-15 04:32:00,54.9,54.3,29.91,SE,135,0.0,-999.0,98,-99.99,,,0.00,Acu-Link.com,2013-05-15 09:32:00,
2013-05-15 04:47:00,54.9,54.3,29.91,SE,135,0.0,-999.0,98,-99.99,,,0.00,Acu-Link.com,2013-05-15 09:47:00,
2013-05-15 05:02:00,54.7,54.1,29.90,SSE,157,0.0,-999.0,98,-99.99,,,0.00,Acu-Link.com,2013-05-15 10:02:00,
2013-05-15 05:17:00,54.3,53.7,29.91,SE,135,0.0,-999.0,98,-99.99,,,0.00,Acu-Link.com,2013-05-15 10:17:00,
2013-05-15 05:32:00,54.0,53.4,29.92,NW,315,0.0,-999.0,98,-99.99,,,0.00,Acu-Link.com,2013-05-15 10:32:00,
2013-05-15 05:47:00,53.2,52.6,29.92,NE,45,0.0,-999.0,98,-99.99,,,0.00,Acu-Link.com,2013-05-15 10:47:00,
2013-05-15 06:02:00,52.7,52.2,29.92,NE,45,0.0,-999.0,98,-99.99,,,0.00,Acu-Link.com,2013-05-15 11:02:00,
2013-05-15 06:18:00,52.5,52.0,29.92,NE,45,0.0,-999.0,98,-99.99,,,0.00,Acu-Link.com,2013-05-15 11:18:00,
2013-05-15 06:33:00,52.5,52.0,29.93,NE,45,0.0,-999.0,98,-99.99,,,0.00,Acu-Link.com,2013-05-15 11:33:00,
2013-05-15 07:03:00,53.4,52.8,29.94,ENE,67,0.0,-999.0,98,-99.99,,,0.00,Acu-Link.com,2013-05-15 12:03:00,
2013-05-15 07:18:00,55.2,54.6,29.94,East,90,0.0,-999.0,98,-99.99,,,0.00,Acu-Link.com,2013-05-15 12:18:00,
2013-05-15 07:33:00,58.3,57.7,29.95,South,180,1.7,-999.0,98,-99.99,,,0.00,Acu-Link.com,2013-05-15 12:33:00,
2013-05-15 08:03:00,61.7,61.1,29.95,SSE,157,3.2,-999.0,98,-99.99,,,0.00,Acu-Link.com,2013-05-15 13:03:00,
2013-05-15 08:18:00,63.1,62.5,29.96,South,180,2.7,-999.0,98,-99.99,,,0.00,Acu-Link.com,2013-05-15 13:18:00,
2013-05-15 08:34:00,65.5,62.2,29.96,WSW,247,2.2,-999.0,89,-99.99,,,0.00,Acu-Link.com,2013-05-15 13:34:00,
2013-05-15 08:49:00,66.7,62.4,29.95,SSW,202,3.7,-999.0,86,-99.99,,,0.00,Acu-Link.com,2013-05-15 13:49:00,
2013-05-15 09:19:00,69.6,63.5,29.94,NW,315,1.1,-999.0,81,-99.99,,,0.00,Acu-Link.com,2013-05-15 14:19:00,
2013-05-15 09:34:00,71.2,63.6,29.94,East,90,3.2,-999.0,77,-99.99,,,0.00,Acu-Link.com,2013-05-15 14:34:00,
2013-05-15 09:49:00,72.5,62.5,29.93,SW,225,4.7,-999.0,71,-99.99,,,0.00,Acu-Link.com,2013-05-15 14:49:00,
2013-05-15 10:04:00,73.2,62.4,29.93,SSE,157,4.7,-999.0,69,-99.99,,,0.00,Acu-Link.com,2013-05-15 15:04:00,
2013-05-15 10:34:00,75.2,61.3,29.93,South,180,4.2,-999.0,62,-99.99,,,0.00,Acu-Link.com,2013-05-15 15:34:00,
2013-05-15 10:50:00,76.8,63.2,29.93,ESE,112,2.7,-999.0,63,-99.99,,,0.00,Acu-Link.com,2013-05-15 15:50:00,
2013-05-15 11:05:00,77.9,63.3,29.93,NNE,22,1.1,-999.0,61,-99.99,,,0.00,Acu-Link.com,2013-05-15 16:05:00,
2013-05-15 11:20:00,78.3,62.8,29.92,SSE,157,2.7,-999.0,59,-99.99,,,0.00,Acu-Link.com,2013-05-15 16:20:00,
2013-05-15 11:35:00,79.0,62.4,29.91,South,180,2.7,-999.0,57,-99.99,,,0.00,Acu-Link.com,2013-05-15 16:35:00,
2013-05-15 11:50:00,79.3,63.2,29.91,East,90,2.7,-999.0,58,-99.99,,,0.00,Acu-Link.com,2013-05-15 16:50:00,
2013-05-15 12:05:00,80.8,62.6,29.90,South,180,3.2,-999.0,54,-99.99,,,0.00,Acu-Link.com,2013-05-15 17:05:00,
2013-05-15 12:20:00,82.6,62.0,29.89,SSE,157,5.8,-999.0,50,-99.99,,,0.00,Acu-Link.com,2013-05-15 17:20:00,
2013-05-15 12:35:00,84.2,62.4,29.89,South,180,3.2,-999.0,48,-99.99,,,0.00,Acu-Link.com,2013-05-15 17:35:00,
2013-05-15 13:06:00,85.1,64.3,29.88,ESE,112,1.7,-999.0,50,-99.99,,,0.00,Acu-Link.com,2013-05-15 18:06:00,
2013-05-15 13:21:00,87.1,66.2,29.87,SSE,157,2.7,-999.0,50,-99.99,,,0.00,Acu-Link.com,2013-05-15 18:21:00,
2013-05-15 13:36:00,86.0,65.2,29.86,WSW,247,4.7,-999.0,50,-99.99,,,0.00,Acu-Link.com,2013-05-15 18:36:00,
2013-05-15 14:07:00,84.9,62.4,29.85,SW,225,2.7,-999.0,47,-99.99,,,0.00,Acu-Link.com,2013-05-15 19:07:00,
2013-05-15 14:37:00,86.2,62.3,29.84,SSW,202,4.7,-999.0,45,-99.99,,,0.00,Acu-Link.com,2013-05-15 19:37:00,
2013-05-15 14:52:00,86.0,62.8,29.83,SSE,157,1.7,-999.0,46,-99.99,,,0.00,Acu-Link.com,2013-05-15 19:52:00,
2013-05-15 15:07:00,88.7,63.9,29.82,SSE,157,3.7,-999.0,44,-99.99,,,0.00,Acu-Link.com,2013-05-15 20:07:00,
2013-05-15 15:22:00,84.9,62.4,29.82,SE,135,3.2,-999.0,47,-99.99,,,0.00,Acu-Link.com,2013-05-15 20:22:00,
2013-05-15 15:53:00,84.2,61.1,29.81,SSE,157,4.2,-999.0,46,-99.99,,,0.00,Acu-Link.com,2013-05-15 20:53:00,
2013-05-15 16:23:00,82.4,61.9,29.80,SW,225,2.2,-999.0,50,-99.99,,,0.00,Acu-Link.com,2013-05-15 21:23:00,
2013-05-15 16:38:00,82.6,64.2,29.80,SSW,202,2.7,-999.0,54,-99.99,,,0.00,Acu-Link.com,2013-05-15 21:38:00,
2013-05-15 16:53:00,81.7,63.9,29.79,SW,225,3.2,-999.0,55,-99.99,,,0.00,Acu-Link.com,2013-05-15 21:53:00,
2013-05-15 17:08:00,83.1,63.6,29.79,NW,315,3.7,-999.0,52,-99.99,,,0.00,Acu-Link.com,2013-05-15 22:08:00,
2013-05-15 17:23:00,82.2,62.8,29.78,SSW,202,1.1,-999.0,52,-99.99,,,0.00,Acu-Link.com,2013-05-15 22:23:00,
2013-05-15 17:54:00,80.8,64.1,29.77,SW,225,0.0,-999.0,57,-99.99,,,0.00,Acu-Link.com,2013-05-15 22:54:00,
2013-05-15 18:11:00,80.8,64.1,29.76,SSE,157,2.2,-999.0,57,-99.99,,,0.00,Acu-Link.com,2013-05-15 23:11:00,
2013-05-15 18:26:00,80.1,64.5,29.75,ESE,112,0.0,-999.0,59,-99.99,,,0.00,Acu-Link.com,2013-05-15 23:26:00,
2013-05-15 18:41:00,78.8,65.6,29.76,South,180,0.0,-999.0,64,-99.99,,,0.00,Acu-Link.com,2013-05-15 23:41:00,
2013-05-15 18:56:00,77.5,66.5,29.75,WSW,247,0.0,-999.0,69,-99.99,,,0.00,Acu-Link.com,2013-05-15 23:56:00,
2013-05-15 19:12:00,76.3,67.0,29.74,South,180,0.0,-999.0,73,-99.99,,,0.00,Acu-Link.com,2013-05-16 00:12:00,
2013-05-15 19:27:00,74.3,68.4,29.75,SSW,202,0.0,-999.0,82,-99.99,,,0.00,Acu-Link.com,2013-05-16 00:27:00,
2013-05-15 19:42:00,73.8,66.1,29.76,SSE,157,0.0,-999.0,77,-99.99,,,0.00,Acu-Link.com,2013-05-16 00:42:00,
2013-05-15 19:57:00,73.2,67.7,29.76,South,180,0.0,-999.0,83,-99.99,,,0.00,Acu-Link.com,2013-05-16 00:57:00,
2013-05-15 20:12:00,73.0,65.4,29.76,South,180,2.7,-999.0,77,-99.99,,,0.00,Acu-Link.com,2013-05-16 01:12:00,
2013-05-15 20:27:00,72.1,65.2,29.76,NE,45,0.0,-999.0,79,-99.99,,,0.00,Acu-Link.com,2013-05-16 01:27:00,
2013-05-15 20:57:00,70.0,66.3,29.76,ESE,112,0.0,-999.0,88,-99.99,,,0.00,Acu-Link.com,2013-05-16 01:57:00,
2013-05-15 21:12:00,69.3,65.6,29.76,SE,135,0.0,-999.0,88,-99.99,,,0.00,Acu-Link.com,2013-05-16 02:12:00,
2013-05-15 21:28:00,68.5,65.4,29.76,NNE,22,0.0,-999.0,90,-99.99,,,0.00,Acu-Link.com,2013-05-16 02:28:00,
2013-05-15 21:43:00,68.7,64.3,29.76,SE,135,0.0,-999.0,86,-99.99,,,0.00,Acu-Link.com,2013-05-16 02:43:00,
2013-05-15 21:58:00,68.5,64.1,29.76,WSW,247,0.0,-999.0,86,-99.99,,,0.00,Acu-Link.com,2013-05-16 02:58:00,
2013-05-15 22:13:00,68.0,64.3,29.77,South,180,0.0,-999.0,88,-99.99,,,0.00,Acu-Link.com,2013-05-16 03:13:00,
2013-05-15 22:29:00,68.2,63.8,29.77,SE,135,0.0,-999.0,86,-99.99,,,0.00,Acu-Link.com,2013-05-16 03:29:00,
2013-05-15 22:44:00,67.6,62.9,29.77,South,180,0.0,-999.0,85,-99.99,,,0.00,Acu-Link.com,2013-05-16 03:44:00,
2013-05-15 23:15:00,66.2,63.8,29.77,South,180,0.0,-999.0,92,-99.99,,,0.00,Acu-Link.com,2013-05-16 04:15:00,
2013-05-15 23:30:00,65.5,63.4,29.77,WNW,292,0.0,-999.0,93,-99.99,,,0.00,Acu-Link.com,2013-05-16 04:30:00,
2013-05-15 23:45:00,65.1,63.6,29.77,South,180,0.0,-999.0,95,-99.99,,,0.00,Acu-Link.com,2013-05-16 04:45:00,